CST,Max TemperatureF,Mean TemperatureF,Min TemperatureF,Max Dew PointF,MeanDew PointF,Min DewpointF,Max Humidity, Mean Humidity, Min Humidity, Max Sea Level PressureIn, Mean Sea Level PressureIn, Min Sea Level PressureIn, Max VisibilityMiles, Mean VisibilityMiles, Min VisibilityMiles, Max Wind SpeedMPH, Mean Wind SpeedMPH, Max Gust SpeedMPH,PrecipitationIn, CloudCover, Events, WindDirDegrees
2013-12-1,23,20,18,19,18,16,96,91,78,30.24,30.08,29.86,10,6,1,9,4,,0.00,7,Snow,122
2013-12-2,30,26,21,28,24,19,100,93,91,29.91,29.68,29.57,10,2,0,12,9,17,0.34,8,Fog-Snow,90
2013-12-3,30,27,24,30,27,22,96,94,91,29.89,29.77,29.61,10,4,1,14,8,20,0.03,8,Rain-Snow,50
2013-12-4,24,17,10,21,14,7,93,88,84,29.88,29.66,29.50,10,2,0,17,11,18,0.21,8,Fog-Snow,4
2013-12-5,9,-2,-13,5,-5,-17,86,80,72,30.34,29.93,29.58,10,6,2,23,19,31,0.00,6,Snow,282
2013-12-6,-5,-12,-22,-12,-19,-25,90,81,70,30.67,30.52,30.21,10,10,10,13,9,,0.00,0,,280
2013-12-7,-9,-18,-27,-15,-23,-31,86,79,71,30.69,30.65,30.58,10,10,9,12,5,,0.00,0,,234
2013-12-8,3,-10,-24,0,-11,-29,91,82,77,30.56,30.20,29.93,10,5,2,12,4,,0.00,7,Snow,164
2013-12-9,-2,-10,-17,-4,-13,-22,95,80,68,30.08,29.95,29.72,10,7,1,17,8,,0.01,4,Snow,224
2013-12-10,1,-10,-20,-5,-13,-24,91,82,72,30.38,30.00,29.72,10,8,2,13,7,,0.00,3,Snow,295
2013-12-11,-6,-16,-25,-11,-17,-30,96,80,68,30.57,30.39,30.15,10,8,2,13,7,,0.00,3,Snow,220
2013-12-12,10,-4,-17,6,-3,-21,87,80,73,30.30,30.23,30.10,10,8,2,9,3,,0.00,6,Snow,351
2013-12-13,3,0,-2,0,-8,-11,84,72,62,30.43,30.32,30.13,10,7,2,12,8,,0.00,8,Snow,54
2013-12-14,3,-8,-20,-2,-8,-22,91,80,72,30.40,30.22,30.04,10,5,2,15,4,,0.01,7,Snow,326
2013-12-15,-2,-14,-23,-11,-16,-25,91,75,62,30.27,30.20,30.12,10,10,9,10,6,,0.00,4,Snow,13
2013-12-16,28,13,-2,27,7,-10,96,85,69,30.08,29.87,29.74,10,5,0,20,11,,0.08,7,Fog-Snow,220
2013-12-17,28,12,-4,25,9,-7,91,80,70,30.12,29.95,29.77,10,6,0,26,18,36,0.01,6,Snow,311
2013-12-18,25,13,1,17,9,-2,93,84,72,30.02,29.78,29.61,10,9,2,15,9,,0.00,1,,221
2013-12-19,10,3,-4,6,-2,-8,87,80,66,30.25,30.14,29.87,10,7,2,15,11,20,0.02,7,Snow,8
2013-12-20,10,-3,-16,5,-6,-20,95,86,76,30.19,30.00,29.79,10,9,2,7,2,,0.00,3,Snow,156
2013-12-21,8,-2,-11,4,-2,-16,92,84,76,30.15,30.00,29.80,10,8,4,13,3,,0.00,6,Snow,11
2013-12-22,3,-2,-8,-1,-4,-13,85,79,72,30.39,30.12,29.99,10,4,1,14,9,,0.01,8,Snow,348
2013-12-23,0,-14,-29,-11,-20,-35,86,76,60,30.60,30.52,30.29,10,10,4,12,8,,0.00,2,Snow,326
2013-12-24,7,-10,-27,5,-8,-32,92,79,62,30.51,30.18,30.02,10,5,0,17,9,,0.01,6,Snow,164
2013-12-25,18,10,3,15,7,0,92,86,70,30.15,30.04,29.93,10,6,2,21,7,26,0.01,8,Snow,229
2013-12-26,19,14,8,17,10,5,92,86,78,30.17,30.09,29.99,10,8,2,9,2,,0.00,8,Snow,140
2013-12-27,36,28,21,29,25,19,96,88,76,30.09,29.94,29.83,10,9,6,22,10,,0.00,5,,245
2013-12-28,30,15,-2,30,20,-7,100,93,75,30.28,29.88,29.70,10,5,0,26,9,34,0.00,7,Fog-Rain-Snow,37
2013-12-29,-5,-15,-25,-10,-22,-28,86,73,59,30.47,30.38,30.30,10,10,10,15,10,,0.00,1,,307
2013-12-30,-2,-11,-22,-8,-15,-26,91,82,74,30.30,30.20,30.10,10,5,1,8,2,,0.00,6,Snow,266
2013-12-31,-11,-20,-29,-18,-25,-33,90,77,71,30.51,30.40,30.27,10,10,10,10,6,,0.00,1,,309